User: anonymous   Login
Location: Unspecified
(0.0000°N, 0.0000°E)
Time: 01:25:55
(UTC+00:00)
Language:

PAYLOAD G - Orbit

View from above orbital plane
View from above orbital plane
View from above satellite
View from above satellite

Ground track
Ground track

The orbit data is extracted from the following two-line orbital elements,

1 27846U 03031G   17266.53642898 +.00000028 +00000-0 +32204-4 0  9996
2 27846 098.6842 272.8507 0009985 042.3608 317.8339 14.22125409738294
Epoch (UTC): 23 September 2017 12:52:27
Eccentricity: 0.0009985
inclination: 98.6842°
perigee height: 811 km
apogee height: 825 km
right ascension of ascending node: 272.8507°
argument of perigee: 42.3608°
revolutions per day: 14.22125409
mean anomaly at epoch: 317.8339°
orbit number at epoch: 73829

The dashed part of the orbit path shows where the satellite is in the earth's shadow,  

DLR